Torna al catalogo

STARLINK-35785

AttivoComunicazioniVLEO
NORAD 67176·PAYLOAD·🇺🇸 United States

Lanciato Dec 17, 2025 da Cape Canaveral Space Force Station

Loading…

Prossimi Passaggi (prossime 24 ore)

TLE

AggiornatoSource: CelesTrak SupGP

Epoca: Sep 15, 2026, 02:44 UTC

1 67176C 25303P   26258.11437500  .00044817  00000+0  16229-2 0  2587
2 67176  43.0032 320.9649 0001573 264.4958 143.6603 15.27563135    10

Traccia STARLINK-35785 in tempo reale con AllMySat

Download on the App Store